Weather History for Air Force Academy, CO

Change the Weather History Date:

Saturday, June 15, 2013

  Actual Average Record
Temperature  
Mean Temperature 64 °F -  
Max Temperature 81 °F 72 °F 93 °F (2000)
Min Temperature 48 °F 45 °F 35 °F (2001)
Growing Degree Days 14 (Base 50)    
Moisture  
Dew Point 42 °F    
Average Humidity 43    
Maximum Humidity 82    
Minimum Humidity 14    
Precipitation  
Precipitation 0.00 in - - ()
Sea Level Pressure  
Sea Level Pressure 29.92 in    
Wind  
Wind Speed 10 mph (North)    
Max Wind Speed 23 mph    
Max Gust Speed 28 mph    
Visibility 10 miles    
Events      
Averages and records for this station are not official NWS values.
T = Trace of Precipitation, MM = Missing Value Source: NWS Daily Summary

Daily Weather History Graph

Daily Weather History Graph

Search for Another Location

Airport:

Trip Planner

Search our weather history database for the weather conditions in past years. The results will help you decide how hot, cold, wet, or windy it might be!

Date:

Astronomy

Jun. 15, 2013 Rise Set
Actual Time 5:33 AM MDT 8:26 PM MDT
Civil Twilight 5:01 AM MDT 8:58 PM MDT
Nautical Twilight 4:20 AM MDT 9:39 PM MDT
Astronomical Twilight 3:34 AM MDT 10:25 PM MDT
Moon 12:07 PM MDT (6/15) 12:06 AM MDT (6/15)
Length of Visible Light 15h 57m
Length of Day
14h 53m
Waxing Crescent, 40% of the Moon is Illuminated
Jun 15
Waxing Crescent
Jun 16
First Quarter
Jun 23
Full
Jun 29
Last Quarter
Jul 8
New

Hourly Weather History & Observations

Time (MDT) Temp. Dew Point Humidity Pressure Visibility Wind Dir Wind Speed Gust Speed Precip Events Conditions
12:58 AM 55.2 °F 44.8 °F 68% 29.81 in 10.0 mi North 3.5 mph - N/A   Clear
1:58 AM 50.9 °F 45.3 °F 81% 29.81 in 10.0 mi North 8.1 mph - N/A   Clear
2:58 AM 49.3 °F 44.1 °F 82% 29.91 in 10.0 mi North 6.9 mph - N/A   Clear
3:58 AM 48.9 °F 43.7 °F 82% 29.91 in 10.0 mi North 8.1 mph - N/A   Clear
4:58 AM 54.1 °F 44.2 °F 69% 29.90 in 10.0 mi NNW 16.1 mph - N/A   Clear
5:58 AM 54.5 °F 45.1 °F 71% 29.88 in 10.0 mi North 19.6 mph 25.3 mph N/A   Clear
6:58 AM 57.7 °F 45.0 °F 62% 29.89 in 10.0 mi North 19.6 mph 25.3 mph N/A   Clear
7:58 AM 61.9 °F 44.6 °F 53% 29.91 in 10.0 mi North 23.0 mph 27.6 mph N/A   Clear
8:58 AM 66.2 °F 44.4 °F 45% 29.92 in 10.0 mi North 19.6 mph - N/A   Clear
9:58 AM 69.3 °F 44.1 °F 40% 29.94 in 10.0 mi NNW 10.4 mph - N/A   Clear
10:58 AM 72.3 °F 43.9 °F 36% 29.92 in 10.0 mi North 5.8 mph - N/A   Clear
11:58 AM 75.0 °F 42.3 °F 31% 29.90 in 10.0 mi Variable 4.6 mph - N/A   Clear
12:58 PM 77.7 °F 40.6 °F 26% 29.86 in 10.0 mi South 8.1 mph - N/A   Scattered Clouds
1:59 PM 78.4 °F 38.3 °F 24% 29.86 in 10.0 mi SSE 12.7 mph - N/A   Partly Cloudy
2:22 PM 77.0 °F 39.2 °F 26% 30.10 in 10.0 mi SE 15.0 mph 20.7 mph N/A   Partly Cloudy
2:58 PM 78.4 °F 37.2 °F 23% 29.86 in 10.0 mi SSE 11.5 mph - N/A   Scattered Clouds
3:58 PM 79.7 °F 41.4 °F 26% 29.85 in 10.0 mi WNW 8.1 mph - N/A   Partly Cloudy
4:30 PM 77.0 °F 37.4 °F 24% 30.09 in 10.0 mi SW 13.8 mph 26.5 mph N/A   Clear
4:58 PM 77.4 °F 31.6 °F 19% 29.85 in 10.0 mi North 8.1 mph - N/A   Clear
5:15 PM 77.0 °F 41.0 °F 28% 30.10 in 10.0 mi Variable 2.3 mph - N/A   Light Drizzle
5:19 PM 78.8 °F 41.0 °F 26% 30.10 in 10.0 mi SW 12.7 mph - N/A   Partly Cloudy
5:58 PM 81.0 °F 28.0 °F 14% 29.84 in 10.0 mi Variable 6.9 mph - 0.00 in   Partly Cloudy
6:20 PM 77.0 °F 37.4 °F 24% 30.10 in 10.0 mi NE 12.7 mph - N/A   Clear
6:58 PM 75.6 °F 40.6 °F 28% 29.85 in 10.0 mi North 11.5 mph - N/A   Clear
7:58 PM 70.3 °F 42.6 °F 37% 29.88 in 10.0 mi NNW 8.1 mph - N/A   Clear
8:58 PM 67.8 °F 43.0 °F 41% 29.90 in 10.0 mi Calm Calm - N/A   Overcast
9:58 PM 64.6 °F 43.7 °F 47% 29.94 in 10.0 mi SW 4.6 mph - N/A   Clear
10:58 PM 61.7 °F 45.0 °F 54% 29.95 in 10.0 mi SSE 3.5 mph - N/A   Clear
11:58 PM 58.8 °F 44.4 °F 59% 29.92 in 10.0 mi East 8.1 mph - N/A   Clear